Regional Weather Roundup
Issued by NWS Boston, MA

Home | Current Version | Previous Version | Text Only | Print | Product List | Glossary On
Versions: 1 2 3 4 5 6 7 8 9 10 11 12 13 14 15 16 17 18 19 20 21 22 23 24 25 26 27 28 29 30 31 32 33 34 35 36 37 38 39 40 41 42 43 44 45 46 47 48 49 50
000
ASUS41 KBOX 301110
RWRBOX

REGIONAL WEATHER ROUNDUP
NATIONAL WEATHER SERVICE TAUNTON MA
700 AM EDT SAT MAY 30 2015

NOTE:  "FAIR" INDICATES FEW OR NO CLOUDS BELOW 12,000 FEET WITH NO
SIGNIFICANT WEATHER AND/OR OBSTRUCTIONS TO VISIBILITY.  THE FOLLOWING
OBSERVATION LOCATIONS DO NOT REPORT PRESENT WEATHER...PROVINCETOWN...
SMITHFIELD...BLOCK ISLAND...KEENE...AND OXFORD.

MAZALL-301200-
EASTERN MASSACHUSETTS

CITY           SKY/WX    TMP DP  RH WIND       PRES   REMARKS
BOSTON         MOSUNNY   59  57  93 S9        30.21S
BEVERLY        SUNNY     60  56  86 S5        30.19F
LAWRENCE       SUNNY     63  57  81 S7        30.20F
BEDFORD        SUNNY     61  58  90 S7        30.18F
BLUE HILL        N/A     57  57 100 S10       30.21R
NORWOOD        CLOUDY    59  59 100 S6        30.22R FOG
MARSHFIELD     FOG       61  61 100 SW7       30.24S VSB 1
PLYMOUTH       FOG       60  60 100 SW7       30.23S VSB 1/2
TAUNTON        FOG       61  60  97 S5        30.23R VSB 1
NEW BEDFORD    CLOUDY    61  60  97 SW7       30.23R FOG
$$

MAZALL-301200-
CAPE COD AND THE ISLANDS

CITY           SKY/WX    TMP DP  RH WIND       PRES   REMARKS
FALMOUTH       CLOUDY    61  61 100 W7        30.25R FOG
HYANNIS        CLOUDY    62  62 100 SW9       30.23R
CHATHAM        FOG       61  61 100 SW6G16    30.25R VSB 1/2
PROVINCETOWN   CLOUDY    61  57  88 SW13      30.24S VSB 1/4
NANTUCKET      PTSUNNY   62  60  93 S9        30.26R
MARTHAS VNYRD  CLOUDY    63  62  97 SW6       30.25R
$$

MAZALL-301200-
CENTRAL AND WESTERN MASSACHUSETTS

CITY           SKY/WX    TMP DP  RH WIND       PRES   REMARKS
WORCESTER      SUNNY     64  58  80 SW12      30.21S
FITCHBURG      SUNNY     62  56  80 CALM      30.19S
ORANGE         SUNNY     60  57  89 CALM      30.20S
SPRINGFIELD    SUNNY     62  59  88 S1        30.19S
WESTFIELD      PTSUNNY   61  58  90 S5        30.20S FOG
NORTH ADAMS    SUNNY     63  56  78 E10       30.17S
PITTSFIELD     PTSUNNY   60  57  89 N5        30.18F
$$

RIZALL-301200-
RHODE ISLAND

CITY           SKY/WX    TMP DP  RH WIND       PRES   REMARKS
PROVIDENCE     FOG       60  59  96 S6        30.24R VSB 3/4
NEWPORT        NOT AVBL
BLOCK ISLAND   CLOUDY    59  55  88 SW8       30.26R VSB 1/4
SMITHFIELD     CLOUDY   N/A N/A N/A S6        30.23R VSB 1/4
WESTERLY       FOG       59  59 100 S3        30.25R VSB<1/4
$$

CTZALL-301200-
CONNECTICUT

CITY           SKY/WX    TMP DP  RH WIND       PRES   REMARKS
BRADLEY INTL   PTSUNNY   62  59  90 S7        30.20R
HARTFORD       CLOUDY    61  59  93 S6        30.21R
BRIDGEPORT     PTSUNNY   64  62  93 SW5       30.22S FOG
DANBURY        SUNNY     64  58  80 CALM      30.23R
GROTON         FOG       60  59  96 CALM      30.23S VSB<1/4
NEW HAVEN      CLOUDY    61  61 100 CALM      30.23R FOG
CHESTER        NOT AVBL
MERIDEN        FOG       61  59  93 VRB6      30.22S VSB 1/4
WILLIMANTIC    CLOUDY    57  56  96 S5        30.24R FOG
OXFORD         CLOUDY    61  55  82 CALM      30.24S VSB 1/4
$$

MEZ002-015-021-024-NHZ003-005-008-011-012-014-VTZ005-008-301200-
NORTHERN NEW ENGLAND

CITY           SKY/WX    TMP DP  RH WIND       PRES   REMARKS
PORTLAND ME    FOG       55  54  96 S3        30.18F VSB 3/4
BANGOR ME      CLOUDY    60  57  89 S10       30.16R
CONCORD NH     SUNNY     62  58  86 S7        30.17S
MANCHESTER NH  MOSUNNY   63  57  81 S6        30.16S
NASHUA NH      SUNNY     62  58  87 SE3       30.19S
PORTSMOUTH NH  MOSUNNY   56  56  98 CALM      30.17F FOG
JAFFREY NH     SUNNY     61  57  87 W3        30.20S
KEENE NH       SUNNY     61  55  82 SW3       30.19S
BURLINGTON VT  PTSUNNY   71  55  56 S21G31    30.04F
MT. WASHINGTON FOG       48  48 100 W39         N/A  VSB 0
$$

NYZ052-076-301200-
EASTERN NEW YORK

CITY           SKY/WX    TMP DP  RH WIND       PRES   REMARKS
ALBANY         MOSUNNY   68  57  68 S16       30.14S
NEW YORK CITY  MOSUNNY   68  62  81 S7        30.21R
$$

ANZALL-301200-
MARINE OBSERVATIONS

STATION/POSITION TIME  TEMP    WIND        PRES    VSBY  WAVE
                       AIR SEA DIR/SP/G                  HT/PER
                 (UTC) (F)     (DEG/KT/KT) (MB)    (MI)  (FT/S)
BOSTON BUOY      1050   56 53  190/  8/ 10   N/A           1/ 9
BUZZARDS BAY     1100          240/  8/  9   N/A
NANTUCKET SOUND  1050   60 61  230/ 10/ 12   N/A           0
MASS BAY-STELLWA 1004   53 51  190/  6/  8   N/A     5/16  2/11
ISLE OF SHOALS   1100   54     180/ 10/ 10   N/A
S OF BLOCK IS    1008      58                N/A           2/ 9
$$

......................KEY.........................
  SKY/WX - SKY CONDITION/PRESENT WEATHER
  TMP    - TEMPERATURE IN FAHRENHEIT
  DWPT   - DEWPOINT IN FAHRENHEIT
  RH     - RELATIVE HUMIDITY IN PERCENT
  WIND   - DIRECTION AND SPEED IN MPH
  PRES   - MEAN SEA LEVEL PRESSURE IN INCHES OF HG
  WCI    - WIND CHILL INDEX
  VSB    - VISIBILITY IN MILES
  HX     - HEAT INDEX
  TC     - TEMPERATURE IN CELSIUS
  VRB    - VARIABLE WIND DIRECTION
  N/A    - NOT AVAILABLE


USA.gov is the U.S. government's official web portal to all federal, state and local government web resources and services.